OPS 5712 (P/L 160)

Satellite information

Favourite Embed

Satellite Type and Status

PAYLOADIN ORBIT

Key statistics

Satellite OPS 5712 (P/L 160) at a glance.

Uptime

21277

Days in orbit

Revolutions

≈ 14.7

Per day

Orbit

LEO

Low Earth Orbit

Inclination

69.9

Latest

Satellite identification and parameters

Extended collection of information and parameters for OPS 5712 (P/L 160).

Object identification

Identified? True

Debris? False

Object name: OPS 5712 (P/L 160)

International designator: 1967-053A

Object number (NORAD): 2826

Object ID (CCSDS): 2826

Country: UNITED STATES OF AMERICA (US)

Current information (Y/N): Y

RCS size: MEDIUM

Orbital parameters

Period: 97.854 minutes

Inclination: 69.9207 deg

SMA: 7034.158 km

Apoapsis: 656.732 km

Periapsis: 655.313 km

RAAN: 29.1043 deg

Eccentricy: 0.00010086

Argument of periapsis: 73.2198 deg

Mean anomaly: 286.9057 deg

Mean motion: 14.71582485 rev/day

Mean motion (dot): 0.00012552 rev/day2

B* drag term: 0.0020241223 1/REarth

Two-line elements (TLE)

Creation date: Aug. 30, 2025, 3:38 a.m.

Reference frame: TEME

Reference center: EARTH

Epoch: Aug. 29, 2025, 9:57 p.m. UTC

TLE line 0: 0 OPS 5712 (P/L 160)

TLE line 1: 1 02826U 67053A 25241.91486990 .00012552 00000-0 20241-2 0 9995

TLE line 2: 2 02826 69.9207 29.1043 0001009 73.2198 286.9057 14.71582485 23289

Live tracking on map

Real-time ground track for satellite OPS 5712 (P/L 160).

In-orbit conjunctions

There are no conjunctions computed for OPS 5712 (P/L 160), at the moment. Check back to stay up to date, as we update our databases every day.

Go to all conjunctions

Associated space launch

Poppy was the follow-on ELINT system, which succeeded the Grab ELINT satellite system.

OPS 5712 (P/L 160) was lifted into orbit during the mission ‘Thor SLV-2 Agena D | Poppy 7A,B,C,D’, on board a Thor SLV-2 Agena D space rocket.

The launch took place on May 31, 1967, 9:30 a.m. from Space Launch Complex 2W.

For more information about the launch, click the button.

Launch to space Thor SLV-2 Agena D | Poppy 7A,B,C,D
Thor SLV-2 Agena D | Poppy 7A,B,C,D

Agency: N/A

Status: Launch Successful

Launch date: May 31, 1967, 9:30 a.m. UTC

Rocket: Thor SLV-2 Agena D

Launch pad: Space Launch Complex 2W

Location: Vandenberg SFB, CA, USA

...

Latest news about this satellite

There are no fresh news available about this satellite. Check back as we update our databases every day.


Newsletter sign-up

Weekly statistics, charts and insights to help you stay on top of the space industry.